Year,Month,Day,Hour,Minute,Value (Times are PST for temperature in C)
2016,05,21,00,00,11.40
2016,05,21,00,01,11.40
2016,05,21,00,02,11.40
2016,05,21,00,03,11.40
2016,05,21,00,04,11.40
2016,05,21,00,05,11.30
2016,05,21,00,06,11.30
2016,05,21,00,07,11.30
2016,05,21,00,08,11.30
2016,05,21,00,09,11.30
2016,05,21,00,10,11.20
2016,05,21,00,11,11.20
2016,05,21,00,12,11.20
2016,05,21,00,13,11.20
2016,05,21,00,14,11.20
2016,05,21,00,15,11.20
2016,05,21,00,16,11.20
2016,05,21,00,17,11.20
2016,05,21,00,18,11.10
2016,05,21,00,19,11.10
2016,05,21,00,20,11.10
2016,05,21,00,21,11.10
2016,05,21,00,22,11.10
2016,05,21,00,23,11.10
2016,05,21,00,24,11.00
2016,05,21,00,25,11.00
2016,05,21,00,26,11.00
2016,05,21,00,27,11.00
2016,05,21,00,28,10.90
2016,05,21,00,29,10.90
2016,05,21,00,30,10.90
2016,05,21,00,31,10.90
2016,05,21,00,32,10.90
2016,05,21,00,33,10.90
2016,05,21,00,34,10.80
2016,05,21,00,35,10.80
2016,05,21,00,36,10.80
2016,05,21,00,37,10.80
2016,05,21,00,38,10.80
2016,05,21,00,39,10.70
2016,05,21,00,40,10.70
2016,05,21,00,41,10.70
2016,05,21,00,42,10.70
2016,05,21,00,43,10.70
2016,05,21,00,44,10.70
2016,05,21,00,45,10.60
2016,05,21,00,46,10.60
2016,05,21,00,47,10.60
2016,05,21,00,48,10.60
2016,05,21,00,49,10.60
2016,05,21,00,50,10.50
2016,05,21,00,51,10.50
2016,05,21,00,52,10.50
2016,05,21,00,53,10.40
2016,05,21,00,54,10.40
2016,05,21,00,55,10.40
2016,05,21,00,56,10.40
2016,05,21,00,57,10.40
2016,05,21,00,58,10.30
2016,05,21,00,59,10.30
2016,05,21,01,00,10.30
2016,05,21,01,01,10.30
2016,05,21,01,02,10.30
2016,05,21,01,03,10.30
2016,05,21,01,04,10.30
2016,05,21,01,05,10.30
2016,05,21,01,06,10.30
2016,05,21,01,07,10.30
2016,05,21,01,08,10.20
2016,05,21,01,09,10.20
2016,05,21,01,10,10.20
2016,05,21,01,11,10.20
2016,05,21,01,12,10.20
2016,05,21,01,13,10.20
2016,05,21,01,14,10.20
2016,05,21,01,15,10.10
2016,05,21,01,16,10.10
2016,05,21,01,17,10.10
2016,05,21,01,18,10.10
2016,05,21,01,19,10.10
2016,05,21,01,20,10.10
2016,05,21,01,21,10.10
2016,05,21,01,22,10.10
2016,05,21,01,23,10.10
2016,05,21,01,24,10.00
2016,05,21,01,25,10.00
2016,05,21,01,26,10.00
2016,05,21,01,27,10.00
2016,05,21,01,28,10.00
2016,05,21,01,29,10.00
2016,05,21,01,30,9.90
2016,05,21,01,31,9.90
2016,05,21,01,32,9.90
2016,05,21,01,33,9.90
2016,05,21,01,34,9.90
2016,05,21,01,35,9.90
2016,05,21,01,36,9.80
2016,05,21,01,37,9.80
2016,05,21,01,38,9.80
2016,05,21,01,39,9.80
2016,05,21,01,40,9.80
2016,05,21,01,41,9.80
2016,05,21,01,42,9.80
2016,05,21,01,43,9.80
2016,05,21,01,44,9.70
2016,05,21,01,45,9.70
2016,05,21,01,46,9.70
2016,05,21,01,47,9.70
2016,05,21,01,48,9.70
2016,05,21,01,49,9.70
2016,05,21,01,50,9.60
2016,05,21,01,51,9.60
2016,05,21,01,52,9.60
2016,05,21,01,53,9.60
2016,05,21,01,54,9.60
2016,05,21,01,55,9.60
2016,05,21,01,56,9.60
2016,05,21,01,57,9.50
2016,05,21,01,58,9.50
2016,05,21,01,59,9.50
2016,05,21,02,00,9.40
2016,05,21,02,01,9.40
2016,05,21,02,02,9.40
2016,05,21,02,03,9.40
2016,05,21,02,04,9.40
2016,05,21,02,05,9.40
2016,05,21,02,06,9.40
2016,05,21,02,07,9.30
2016,05,21,02,08,9.30
2016,05,21,02,09,9.30
2016,05,21,02,10,9.30
2016,05,21,02,11,9.30
2016,05,21,02,12,9.30
2016,05,21,02,13,9.30
2016,05,21,02,14,9.30
2016,05,21,02,15,9.30
2016,05,21,02,16,9.30
2016,05,21,02,17,9.30
2016,05,21,02,18,9.30
2016,05,21,02,19,9.30
2016,05,21,02,20,9.30
2016,05,21,02,21,9.30
2016,05,21,02,22,9.30
2016,05,21,02,23,9.30
2016,05,21,02,24,9.30
2016,05,21,02,25,9.30
2016,05,21,02,26,9.30
2016,05,21,02,27,9.20
2016,05,21,02,28,9.20
2016,05,21,02,29,9.20
2016,05,21,02,30,9.20
2016,05,21,02,31,9.20
2016,05,21,02,32,9.20
2016,05,21,02,33,9.20
2016,05,21,02,34,9.10
2016,05,21,02,35,9.10
2016,05,21,02,36,9.10
2016,05,21,02,37,9.10
2016,05,21,02,38,9.10
2016,05,21,02,39,9.10
2016,05,21,02,40,9.10
2016,05,21,02,41,9.10
2016,05,21,02,42,9.00
2016,05,21,02,43,9.00
2016,05,21,02,44,9.00
2016,05,21,02,45,9.00
2016,05,21,02,46,9.00
2016,05,21,02,47,8.90
2016,05,21,02,48,8.90
2016,05,21,02,49,8.90
2016,05,21,02,50,8.90
2016,05,21,02,51,8.80
2016,05,21,02,52,8.80
2016,05,21,02,53,8.80
2016,05,21,02,54,8.80
2016,05,21,02,55,8.80
2016,05,21,02,56,8.80
2016,05,21,02,57,8.80
2016,05,21,02,58,8.80
2016,05,21,02,59,8.80
2016,05,21,03,00,8.90
2016,05,21,03,01,8.90
2016,05,21,03,02,8.90
2016,05,21,03,03,8.90
2016,05,21,03,04,8.90
2016,05,21,03,05,8.90
2016,05,21,03,06,8.90
2016,05,21,03,07,8.90
2016,05,21,03,08,8.90
2016,05,21,03,09,8.90
2016,05,21,03,10,8.90
2016,05,21,03,11,8.90
2016,05,21,03,12,8.80
2016,05,21,03,13,8.80
2016,05,21,03,14,8.80
2016,05,21,03,15,8.80
2016,05,21,03,16,8.80
2016,05,21,03,17,8.70
2016,05,21,03,18,8.70
2016,05,21,03,19,8.70
2016,05,21,03,20,8.70
2016,05,21,03,21,8.70
2016,05,21,03,22,8.60
2016,05,21,03,23,8.60
2016,05,21,03,24,8.60
2016,05,21,03,25,8.60
2016,05,21,03,26,8.50
2016,05,21,03,27,8.50
2016,05,21,03,28,8.50
2016,05,21,03,29,8.50
2016,05,21,03,30,8.50
2016,05,21,03,31,8.50
2016,05,21,03,32,8.40
2016,05,21,03,33,8.40
2016,05,21,03,34,8.40
2016,05,21,03,35,8.40
2016,05,21,03,36,8.40
2016,05,21,03,37,8.40
2016,05,21,03,38,8.40
2016,05,21,03,39,8.40
2016,05,21,03,40,8.40
2016,05,21,03,41,8.40
2016,05,21,03,42,8.30
2016,05,21,03,43,8.30
2016,05,21,03,44,8.30
2016,05,21,03,45,8.30
2016,05,21,03,46,8.30
2016,05,21,03,47,8.30
2016,05,21,03,48,8.30
2016,05,21,03,49,8.30
2016,05,21,03,50,8.30
2016,05,21,03,51,8.30
2016,05,21,03,52,8.30
2016,05,21,03,53,8.30
2016,05,21,03,54,8.30
2016,05,21,03,55,8.30
2016,05,21,03,56,8.30
2016,05,21,03,57,8.30
2016,05,21,03,58,8.30
2016,05,21,03,59,8.30
2016,05,21,04,00,8.30
2016,05,21,04,01,8.30
2016,05,21,04,02,8.30
2016,05,21,04,03,8.20
2016,05,21,04,04,8.20
2016,05,21,04,05,8.20
2016,05,21,04,06,8.20
2016,05,21,04,07,8.20
2016,05,21,04,08,8.20
2016,05,21,04,09,8.20
2016,05,21,04,10,8.10
2016,05,21,04,11,8.10
2016,05,21,04,12,8.10
2016,05,21,04,13,8.10
2016,05,21,04,14,8.10
2016,05,21,04,15,8.10
2016,05,21,04,16,8.10
2016,05,21,04,17,8.10
2016,05,21,04,18,8.10
2016,05,21,04,19,8.10
2016,05,21,04,20,8.10
2016,05,21,04,21,8.10
2016,05,21,04,22,8.10
2016,05,21,04,23,8.10
2016,05,21,04,24,8.10
2016,05,21,04,25,8.10
2016,05,21,04,26,8.10
2016,05,21,04,27,8.10
2016,05,21,04,28,8.10
2016,05,21,04,29,8.10
2016,05,21,04,30,8.10
2016,05,21,04,31,8.10
2016,05,21,04,32,8.00
2016,05,21,04,33,8.00
2016,05,21,04,34,8.00
2016,05,21,04,35,8.00
2016,05,21,04,36,8.00
2016,05,21,04,37,7.90
2016,05,21,04,38,7.90
2016,05,21,04,39,7.90
2016,05,21,04,40,7.90
2016,05,21,04,41,7.90
2016,05,21,04,42,7.90
2016,05,21,04,43,7.90
2016,05,21,04,44,7.90
2016,05,21,04,45,7.80
2016,05,21,04,46,7.80
2016,05,21,04,47,7.80
2016,05,21,04,48,7.80
2016,05,21,04,49,7.80
2016,05,21,04,50,7.80
2016,05,21,04,51,7.80
2016,05,21,04,52,7.80
2016,05,21,04,53,7.80
2016,05,21,04,54,7.80
2016,05,21,04,55,7.70
2016,05,21,04,56,7.70
2016,05,21,04,57,7.70
2016,05,21,04,58,7.70
2016,05,21,04,59,7.70
2016,05,21,05,00,7.70
2016,05,21,05,01,7.70
2016,05,21,05,02,7.70
2016,05,21,05,03,7.80
2016,05,21,05,04,7.80
2016,05,21,05,05,7.80
2016,05,21,05,06,7.80
2016,05,21,05,07,7.80
2016,05,21,05,08,7.80
2016,05,21,05,09,7.80
2016,05,21,05,10,7.80
2016,05,21,05,11,7.80
2016,05,21,05,12,7.80
2016,05,21,05,13,7.80
2016,05,21,05,14,7.80
2016,05,21,05,15,7.80
2016,05,21,05,16,7.80
2016,05,21,05,17,7.80
2016,05,21,05,18,7.80
2016,05,21,05,19,7.80
2016,05,21,05,20,7.70
2016,05,21,05,21,7.70
2016,05,21,05,22,7.70
2016,05,21,05,23,7.70
2016,05,21,05,24,7.70
2016,05,21,05,25,7.60
2016,05,21,05,26,7.60
2016,05,21,05,27,7.60
2016,05,21,05,28,7.60
2016,05,21,05,29,7.60
2016,05,21,05,30,7.50
2016,05,21,05,31,7.50
2016,05,21,05,32,7.50
2016,05,21,05,33,7.50
2016,05,21,05,34,7.50
2016,05,21,05,35,7.50
2016,05,21,05,36,7.50
2016,05,21,05,37,7.50
2016,05,21,05,38,7.50
2016,05,21,05,39,7.50
2016,05,21,05,40,7.50
2016,05,21,05,41,7.50
2016,05,21,05,42,7.50
2016,05,21,05,43,7.50
2016,05,21,05,44,7.50
2016,05,21,05,45,7.50
2016,05,21,05,46,7.50
2016,05,21,05,47,7.40
2016,05,21,05,48,7.40
2016,05,21,05,49,7.40
2016,05,21,05,50,7.40
2016,05,21,05,51,7.40
2016,05,21,05,52,7.40
2016,05,21,05,53,7.40
2016,05,21,05,54,7.40
2016,05,21,05,55,7.40
2016,05,21,05,56,7.40
2016,05,21,05,57,7.30
2016,05,21,05,58,7.40
2016,05,21,05,59,7.40
2016,05,21,06,00,7.40
2016,05,21,06,01,7.40
2016,05,21,06,02,7.40
2016,05,21,06,03,7.40
2016,05,21,06,04,7.40
2016,05,21,06,05,7.40
2016,05,21,06,06,7.40
2016,05,21,06,07,7.40
2016,05,21,06,08,7.40
2016,05,21,06,09,7.50
2016,05,21,06,10,7.50
2016,05,21,06,11,7.50
2016,05,21,06,12,7.60
2016,05,21,06,13,7.60
2016,05,21,06,14,7.60
2016,05,21,06,15,7.70
2016,05,21,06,16,7.70
2016,05,21,06,17,7.80
2016,05,21,06,18,7.80
2016,05,21,06,19,7.80
2016,05,21,06,20,7.90
2016,05,21,06,21,7.90
2016,05,21,06,22,7.90
2016,05,21,06,23,7.90
2016,05,21,06,24,8.00
2016,05,21,06,25,8.00
2016,05,21,06,26,8.10
2016,05,21,06,27,8.10
2016,05,21,06,28,8.20
2016,05,21,06,29,8.20
2016,05,21,06,30,8.20
2016,05,21,06,31,8.20
2016,05,21,06,32,8.30
2016,05,21,06,33,8.30
2016,05,21,06,34,8.40
2016,05,21,06,35,8.40
2016,05,21,06,36,8.40
2016,05,21,06,37,8.50
2016,05,21,06,38,8.50
2016,05,21,06,39,8.50
2016,05,21,06,40,8.50
2016,05,21,06,41,8.60
2016,05,21,06,42,8.60
2016,05,21,06,43,8.60
2016,05,21,06,44,8.60
2016,05,21,06,45,8.60
2016,05,21,06,46,8.70
2016,05,21,06,47,8.70
2016,05,21,06,48,8.70
2016,05,21,06,49,8.70
2016,05,21,06,50,8.80
2016,05,21,06,51,8.80
2016,05,21,06,52,8.80
2016,05,21,06,53,8.80
2016,05,21,06,54,8.90
2016,05,21,06,55,8.90
2016,05,21,06,56,9.00
2016,05,21,06,57,9.00
2016,05,21,06,58,9.00
2016,05,21,06,59,9.10
2016,05,21,07,00,9.10
2016,05,21,07,01,9.10
2016,05,21,07,02,9.20
2016,05,21,07,03,9.20
2016,05,21,07,04,9.30
2016,05,21,07,05,9.40
2016,05,21,07,06,9.40
2016,05,21,07,07,9.40
2016,05,21,07,08,9.50
2016,05,21,07,09,9.60
2016,05,21,07,10,9.60
2016,05,21,07,11,9.70
2016,05,21,07,12,9.70
2016,05,21,07,13,9.70
2016,05,21,07,14,9.80
2016,05,21,07,15,9.80
2016,05,21,07,16,9.90
2016,05,21,07,17,9.90
2016,05,21,07,18,10.00
2016,05,21,07,19,10.00
2016,05,21,07,20,10.10
2016,05,21,07,21,10.10
2016,05,21,07,22,10.20
2016,05,21,07,23,10.30
2016,05,21,07,24,10.30
2016,05,21,07,25,10.40
2016,05,21,07,26,10.40
2016,05,21,07,27,10.50
2016,05,21,07,28,10.60
2016,05,21,07,29,10.60
2016,05,21,07,30,10.70
2016,05,21,07,31,10.80
2016,05,21,07,32,10.80
2016,05,21,07,33,10.90
2016,05,21,07,34,11.00
2016,05,21,07,35,11.00
2016,05,21,07,36,11.10
2016,05,21,07,37,11.10
2016,05,21,07,38,11.20
2016,05,21,07,39,11.20
2016,05,21,07,40,11.20
2016,05,21,07,41,11.30
2016,05,21,07,42,11.30
2016,05,21,07,43,11.30
2016,05,21,07,44,11.30
2016,05,21,07,45,11.30
2016,05,21,07,46,11.30
2016,05,21,07,47,11.20
2016,05,21,07,48,11.20
2016,05,21,07,49,11.20
2016,05,21,07,50,11.20
2016,05,21,07,51,11.10
2016,05,21,07,52,11.10
2016,05,21,07,53,11.10
2016,05,21,07,54,11.10
2016,05,21,07,55,11.10
2016,05,21,07,56,11.00
2016,05,21,07,57,11.00
2016,05,21,07,58,11.00
2016,05,21,07,59,11.00
2016,05,21,08,00,11.00
2016,05,21,08,01,11.00
2016,05,21,08,02,11.00
2016,05,21,08,03,11.00
2016,05,21,08,04,11.00
2016,05,21,08,05,11.00
2016,05,21,08,06,11.00
2016,05,21,08,07,11.10
2016,05,21,08,08,11.10
2016,05,21,08,09,11.10
2016,05,21,08,10,11.10
2016,05,21,08,11,11.20
2016,05,21,08,12,11.20
2016,05,21,08,13,11.30
2016,05,21,08,14,11.30
2016,05,21,08,15,11.30
2016,05,21,08,16,11.40
2016,05,21,08,17,11.50
2016,05,21,08,18,11.60
2016,05,21,08,19,11.70
2016,05,21,08,20,11.80
2016,05,21,08,21,11.80
2016,05,21,08,22,11.90
2016,05,21,08,23,12.00
2016,05,21,08,24,12.10
2016,05,21,08,25,12.20
2016,05,21,08,26,12.30
2016,05,21,08,27,12.40
2016,05,21,08,28,12.50
2016,05,21,08,29,12.60
2016,05,21,08,30,12.70
2016,05,21,08,31,12.90
2016,05,21,08,32,12.90
2016,05,21,08,33,13.00
2016,05,21,08,34,13.10
2016,05,21,08,35,13.20
2016,05,21,08,36,13.20
2016,05,21,08,37,13.30
2016,05,21,08,38,13.40
2016,05,21,08,39,13.40
2016,05,21,08,40,13.50
2016,05,21,08,41,13.60
2016,05,21,08,42,13.70
2016,05,21,08,43,13.70
2016,05,21,08,44,13.80
2016,05,21,08,45,13.80
2016,05,21,08,46,13.90
2016,05,21,08,47,13.90
2016,05,21,08,48,14.00
2016,05,21,08,49,14.10
2016,05,21,08,50,14.10
2016,05,21,08,51,14.20
2016,05,21,08,52,14.30
2016,05,21,08,53,14.30
2016,05,21,08,54,14.40
2016,05,21,08,55,14.50
2016,05,21,08,56,14.60
2016,05,21,08,57,14.60
2016,05,21,08,58,14.70
2016,05,21,08,59,14.80
2016,05,21,09,00,14.90
2016,05,21,09,01,14.90
2016,05,21,09,02,15.00
2016,05,21,09,03,15.10
2016,05,21,09,04,15.10
2016,05,21,09,05,15.20
2016,05,21,09,06,15.30
2016,05,21,09,07,15.30
2016,05,21,09,08,15.40
2016,05,21,09,09,15.40
2016,05,21,09,10,15.50
2016,05,21,09,11,15.50
2016,05,21,09,12,15.60
2016,05,21,09,13,15.70
2016,05,21,09,14,15.80
2016,05,21,09,15,15.90
2016,05,21,09,16,16.00
2016,05,21,09,17,16.00
2016,05,21,09,18,16.10
2016,05,21,09,19,16.20
2016,05,21,09,20,16.30
2016,05,21,09,21,16.40
2016,05,21,09,22,16.50
2016,05,21,09,23,16.60
2016,05,21,09,24,16.70
2016,05,21,09,25,16.80
2016,05,21,09,26,16.80
2016,05,21,09,27,16.90
2016,05,21,09,28,17.00
2016,05,21,09,29,17.10
2016,05,21,09,30,17.10
2016,05,21,09,31,17.20
2016,05,21,09,32,17.20
2016,05,21,09,33,17.20
2016,05,21,09,34,17.30
2016,05,21,09,35,17.30
2016,05,21,09,36,17.30
2016,05,21,09,37,17.30
2016,05,21,09,38,17.40
2016,05,21,09,39,17.40
2016,05,21,09,40,17.40
2016,05,21,09,41,17.40
2016,05,21,09,42,17.30
2016,05,21,09,43,17.20
2016,05,21,09,44,17.20
2016,05,21,09,45,17.20
2016,05,21,09,46,17.10
2016,05,21,09,47,17.10
2016,05,21,09,48,17.20
2016,05,21,09,49,17.20
2016,05,21,09,50,17.20
2016,05,21,09,51,17.20
2016,05,21,09,52,17.20
2016,05,21,09,53,17.20
2016,05,21,09,54,17.20
2016,05,21,09,55,17.20
2016,05,21,09,56,17.30
2016,05,21,09,57,17.30
2016,05,21,09,58,17.30
2016,05,21,09,59,17.30
2016,05,21,10,00,17.30
2016,05,21,10,01,17.40
2016,05,21,10,02,17.40
2016,05,21,10,03,17.50
2016,05,21,10,04,17.70
2016,05,21,10,05,17.80
2016,05,21,10,06,17.90
2016,05,21,10,07,18.10
2016,05,21,10,08,18.20
2016,05,21,10,09,18.30
2016,05,21,10,10,18.30
2016,05,21,10,11,18.30
2016,05,21,10,12,18.30
2016,05,21,10,13,18.20
2016,05,21,10,14,18.30
2016,05,21,10,15,18.30
2016,05,21,10,16,18.40
2016,05,21,10,17,18.50
2016,05,21,10,18,18.60
2016,05,21,10,19,18.60
2016,05,21,10,20,18.70
2016,05,21,10,21,18.70
2016,05,21,10,22,18.70
2016,05,21,10,23,18.60
2016,05,21,10,24,18.50
2016,05,21,10,25,18.50
2016,05,21,10,26,18.40
2016,05,21,10,27,18.40
2016,05,21,10,28,18.40
2016,05,21,10,29,18.50
2016,05,21,10,30,18.60
2016,05,21,10,31,18.60
2016,05,21,10,32,18.70
2016,05,21,10,33,18.70
2016,05,21,10,34,18.70
2016,05,21,10,35,18.70
2016,05,21,10,36,18.80
2016,05,21,10,37,18.80
2016,05,21,10,38,18.80
2016,05,21,10,39,18.80
2016,05,21,10,40,18.80
2016,05,21,10,41,18.80
2016,05,21,10,42,18.80
2016,05,21,10,43,18.70
2016,05,21,10,44,18.60
2016,05,21,10,45,18.60
2016,05,21,10,46,18.50
2016,05,21,10,47,18.40
2016,05,21,10,48,18.30
2016,05,21,10,49,18.30
2016,05,21,10,50,18.30
2016,05,21,10,51,18.30
2016,05,21,10,52,18.30
2016,05,21,10,53,18.30
2016,05,21,10,54,18.30
2016,05,21,10,55,18.40
2016,05,21,10,56,18.40
2016,05,21,10,57,18.50
2016,05,21,10,58,18.60
2016,05,21,10,59,18.60
2016,05,21,11,00,18.70
2016,05,21,11,01,18.70
2016,05,21,11,02,18.80
2016,05,21,11,03,18.80
2016,05,21,11,04,18.90
2016,05,21,11,05,19.00
2016,05,21,11,06,19.10
2016,05,21,11,07,19.10
2016,05,21,11,08,19.10
2016,05,21,11,09,19.20
2016,05,21,11,10,19.20
2016,05,21,11,11,19.30
2016,05,21,11,12,19.40
2016,05,21,11,13,19.40
2016,05,21,11,14,19.50
2016,05,21,11,15,19.50
2016,05,21,11,16,19.60
2016,05,21,11,17,19.60
2016,05,21,11,18,19.70
2016,05,21,11,19,19.70
2016,05,21,11,20,19.80
2016,05,21,11,21,19.80
2016,05,21,11,22,19.90
2016,05,21,11,23,19.90
2016,05,21,11,24,20.00
2016,05,21,11,25,20.00
2016,05,21,11,26,20.10
2016,05,21,11,27,20.10
2016,05,21,11,28,20.20
2016,05,21,11,29,20.30
2016,05,21,11,30,20.30
2016,05,21,11,31,20.30
2016,05,21,11,32,20.30
2016,05,21,11,33,20.20
2016,05,21,11,34,20.20
2016,05,21,11,35,20.10
2016,05,21,11,36,20.10
2016,05,21,11,37,20.20
2016,05,21,11,38,20.20
2016,05,21,11,39,20.20
2016,05,21,11,40,20.20
2016,05,21,11,41,20.20
2016,05,21,11,42,20.30
2016,05,21,11,43,20.20
2016,05,21,11,44,20.20
2016,05,21,11,45,20.20
2016,05,21,11,46,20.20
2016,05,21,11,47,20.10
2016,05,21,11,48,20.10
2016,05,21,11,49,20.10
2016,05,21,11,50,20.00
2016,05,21,11,51,20.00
2016,05,21,11,52,20.00
2016,05,21,11,53,20.00
2016,05,21,11,54,19.90
2016,05,21,11,55,19.90
2016,05,21,11,56,19.90
2016,05,21,11,57,19.90
2016,05,21,11,58,19.90
2016,05,21,11,59,19.80
2016,05,21,12,00,19.80
2016,05,21,12,01,19.70
2016,05,21,12,02,19.70
2016,05,21,12,03,19.70
2016,05,21,12,04,19.70
2016,05,21,12,05,19.70
2016,05,21,12,06,19.80
2016,05,21,12,07,19.80
2016,05,21,12,08,19.90
2016,05,21,12,09,19.90
2016,05,21,12,10,19.90
2016,05,21,12,11,19.90
2016,05,21,12,12,19.80
2016,05,21,12,13,19.80
2016,05,21,12,14,19.80
2016,05,21,12,15,19.80
2016,05,21,12,16,19.70
2016,05,21,12,17,19.70
2016,05,21,12,18,19.60
2016,05,21,12,19,19.50
2016,05,21,12,20,19.50
2016,05,21,12,21,19.40
2016,05,21,12,22,19.30
2016,05,21,12,23,19.20
2016,05,21,12,24,19.10
2016,05,21,12,25,19.00
2016,05,21,12,26,18.90
2016,05,21,12,27,18.90
2016,05,21,12,28,18.90
2016,05,21,12,29,18.80
2016,05,21,12,30,18.70
2016,05,21,12,31,18.70
2016,05,21,12,32,18.70
2016,05,21,12,33,18.70
2016,05,21,12,34,18.70
2016,05,21,12,35,18.70
2016,05,21,12,36,18.70
2016,05,21,12,37,18.80
2016,05,21,12,38,18.80
2016,05,21,12,39,18.70
2016,05,21,12,40,18.80
2016,05,21,12,41,18.80
2016,05,21,12,42,18.90
2016,05,21,12,43,19.00
2016,05,21,12,44,19.00
2016,05,21,12,45,19.10
2016,05,21,12,46,19.10
2016,05,21,12,47,19.20
2016,05,21,12,48,19.20
2016,05,21,12,49,19.30
2016,05,21,12,50,19.30
2016,05,21,12,51,19.30
2016,05,21,12,52,19.30
2016,05,21,12,53,19.30
2016,05,21,12,54,19.30
2016,05,21,12,55,19.30
2016,05,21,12,56,19.30
2016,05,21,12,57,19.30
2016,05,21,12,58,19.30
2016,05,21,12,59,19.30
2016,05,21,13,00,19.20
2016,05,21,13,01,19.20
2016,05,21,13,02,19.20
2016,05,21,13,03,19.20
2016,05,21,13,04,19.20
2016,05,21,13,05,19.30
2016,05,21,13,06,19.30
2016,05,21,13,07,19.20
2016,05,21,13,08,19.20
2016,05,21,13,09,19.20
2016,05,21,13,10,19.20
2016,05,21,13,11,19.20
2016,05,21,13,12,19.10
2016,05,21,13,13,19.10
2016,05,21,13,14,19.00
2016,05,21,13,15,19.00
2016,05,21,13,16,18.90
2016,05,21,13,17,18.90
2016,05,21,13,18,18.90
2016,05,21,13,19,18.90
2016,05,21,13,20,18.90
2016,05,21,13,21,18.90
2016,05,21,13,22,19.00
2016,05,21,13,23,19.00
2016,05,21,13,24,19.10
2016,05,21,13,25,19.20
2016,05,21,13,26,19.20
2016,05,21,13,27,19.30
2016,05,21,13,28,19.30
2016,05,21,13,29,19.30
2016,05,21,13,30,19.30
2016,05,21,13,31,19.30
2016,05,21,13,32,19.30
2016,05,21,13,33,19.30
2016,05,21,13,34,19.30
2016,05,21,13,35,19.40
2016,05,21,13,36,19.50
2016,05,21,13,37,19.50
2016,05,21,13,38,19.50
2016,05,21,13,39,19.60
2016,05,21,13,40,19.60
2016,05,21,13,41,19.60
2016,05,21,13,42,19.70
2016,05,21,13,43,19.70
2016,05,21,13,44,19.70
2016,05,21,13,45,19.80
2016,05,21,13,46,19.80
2016,05,21,13,47,19.90
2016,05,21,13,48,19.90
2016,05,21,13,49,19.90
2016,05,21,13,50,19.90
2016,05,21,13,51,20.00
2016,05,21,13,52,20.00
2016,05,21,13,53,20.10
2016,05,21,13,54,20.10
2016,05,21,13,55,20.10
2016,05,21,13,56,20.10
2016,05,21,13,57,20.10
2016,05,21,13,58,20.20
2016,05,21,13,59,20.20
2016,05,21,14,00,20.20
2016,05,21,14,01,20.20
2016,05,21,14,02,20.20
2016,05,21,14,03,20.20
2016,05,21,14,04,20.20
2016,05,21,14,05,20.20
2016,05,21,14,06,20.30
2016,05,21,14,07,20.30
2016,05,21,14,08,20.30
2016,05,21,14,09,20.30
2016,05,21,14,10,20.30
2016,05,21,14,11,20.30
2016,05,21,14,12,20.30
2016,05,21,14,13,20.30
2016,05,21,14,14,20.30
2016,05,21,14,15,20.40
2016,05,21,14,16,20.40
2016,05,21,14,17,20.40
2016,05,21,14,18,20.40
2016,05,21,14,19,20.30
2016,05,21,14,20,20.30
2016,05,21,14,21,20.30
2016,05,21,14,22,20.30
2016,05,21,14,23,20.30
2016,05,21,14,24,20.30
2016,05,21,14,25,20.30
2016,05,21,14,26,20.30
2016,05,21,14,27,20.20
2016,05,21,14,28,20.20
2016,05,21,14,29,20.10
2016,05,21,14,30,20.10
2016,05,21,14,31,20.10
2016,05,21,14,32,20.20
2016,05,21,14,33,20.20
2016,05,21,14,34,20.20
2016,05,21,14,35,20.10
2016,05,21,14,36,20.10
2016,05,21,14,37,20.10
2016,05,21,14,38,20.10
2016,05,21,14,39,20.00
2016,05,21,14,40,20.10
2016,05,21,14,41,20.10
2016,05,21,14,42,20.20
2016,05,21,14,43,20.20
2016,05,21,14,44,20.30
2016,05,21,14,45,20.30
2016,05,21,14,46,20.40
2016,05,21,14,47,20.40
2016,05,21,14,48,20.40
2016,05,21,14,49,20.40
2016,05,21,14,50,20.40
2016,05,21,14,51,20.30
2016,05,21,14,52,20.30
2016,05,21,14,53,20.30
2016,05,21,14,54,20.30
2016,05,21,14,55,20.30
2016,05,21,14,56,20.30
2016,05,21,14,57,20.30
2016,05,21,14,58,20.30
2016,05,21,14,59,20.30
2016,05,21,15,00,20.30
2016,05,21,15,01,20.20
2016,05,21,15,02,20.20
2016,05,21,15,03,20.20
2016,05,21,15,04,20.30
2016,05,21,15,05,20.30
2016,05,21,15,06,20.30
2016,05,21,15,07,20.40
2016,05,21,15,08,20.40
2016,05,21,15,09,20.40
2016,05,21,15,10,20.30
2016,05,21,15,11,20.30
2016,05,21,15,12,20.30
2016,05,21,15,13,20.30
2016,05,21,15,14,20.30
2016,05,21,15,15,20.30
2016,05,21,15,16,20.30
2016,05,21,15,17,20.20
2016,05,21,15,18,20.10
2016,05,21,15,19,20.00
2016,05,21,15,20,19.80
2016,05,21,15,21,19.70
2016,05,21,15,22,19.70
2016,05,21,15,23,19.60
2016,05,21,15,24,19.60
2016,05,21,15,25,19.60
2016,05,21,15,26,19.70
2016,05,21,15,27,19.80
2016,05,21,15,28,19.90
2016,05,21,15,29,20.00
2016,05,21,15,30,20.10
2016,05,21,15,31,20.10
2016,05,21,15,32,20.00
2016,05,21,15,33,19.90
2016,05,21,15,34,19.90
2016,05,21,15,35,19.80
2016,05,21,15,36,19.80
2016,05,21,15,37,19.90
2016,05,21,15,38,19.90
2016,05,21,15,39,20.00
2016,05,21,15,40,20.10
2016,05,21,15,41,20.10
2016,05,21,15,42,20.00
2016,05,21,15,43,20.00
2016,05,21,15,44,19.90
2016,05,21,15,45,19.90
2016,05,21,15,46,19.90
2016,05,21,15,47,19.90
2016,05,21,15,48,20.00
2016,05,21,15,49,20.10
2016,05,21,15,50,20.10
2016,05,21,15,51,20.20
2016,05,21,15,52,20.20
2016,05,21,15,53,20.20
2016,05,21,15,54,20.20
2016,05,21,15,55,20.20
2016,05,21,15,56,20.20
2016,05,21,15,57,20.10
2016,05,21,15,58,20.20
2016,05,21,15,59,20.20
2016,05,21,16,00,20.20
2016,05,21,16,01,20.20
2016,05,21,16,02,20.20
2016,05,21,16,03,20.20
2016,05,21,16,04,20.20
2016,05,21,16,05,20.20
2016,05,21,16,06,20.20
2016,05,21,16,07,20.20
2016,05,21,16,08,20.30
2016,05,21,16,09,20.40
2016,05,21,16,10,20.40
2016,05,21,16,11,20.50
2016,05,21,16,12,20.50
2016,05,21,16,13,20.60
2016,05,21,16,14,20.60
2016,05,21,16,15,20.50
2016,05,21,16,16,20.40
2016,05,21,16,17,20.40
2016,05,21,16,18,20.30
2016,05,21,16,19,20.30
2016,05,21,16,20,20.20
2016,05,21,16,21,20.10
2016,05,21,16,22,20.10
2016,05,21,16,23,20.10
2016,05,21,16,24,20.10
2016,05,21,16,25,20.10
2016,05,21,16,26,20.00
2016,05,21,16,27,20.00
2016,05,21,16,28,20.00
2016,05,21,16,29,20.00
2016,05,21,16,30,20.10
2016,05,21,16,31,20.10
2016,05,21,16,32,20.20
2016,05,21,16,33,20.20
2016,05,21,16,34,20.30
2016,05,21,16,35,20.30
2016,05,21,16,36,20.30
2016,05,21,16,37,20.30
2016,05,21,16,38,20.30
2016,05,21,16,39,20.30
2016,05,21,16,40,20.30
2016,05,21,16,41,20.30
2016,05,21,16,42,20.30
2016,05,21,16,43,20.30
2016,05,21,16,44,20.30
2016,05,21,16,45,20.20
2016,05,21,16,46,20.10
2016,05,21,16,47,20.00
2016,05,21,16,48,19.90
2016,05,21,16,49,19.80
2016,05,21,16,50,19.70
2016,05,21,16,51,19.70
2016,05,21,16,52,19.60
2016,05,21,16,53,19.60
2016,05,21,16,54,19.50
2016,05,21,16,55,19.40
2016,05,21,16,56,19.40
2016,05,21,16,57,19.40
2016,05,21,16,58,19.40
2016,05,21,16,59,19.40
2016,05,21,17,00,19.40
2016,05,21,17,01,19.50
2016,05,21,17,02,19.50
2016,05,21,17,03,19.60
2016,05,21,17,04,19.70
2016,05,21,17,05,19.60
2016,05,21,17,06,19.60
2016,05,21,17,07,19.60
2016,05,21,17,08,19.70
2016,05,21,17,09,19.70
2016,05,21,17,10,19.60
2016,05,21,17,11,19.60
2016,05,21,17,12,19.60
2016,05,21,17,13,19.60
2016,05,21,17,14,19.70
2016,05,21,17,15,19.70
2016,05,21,17,16,19.80
2016,05,21,17,17,19.80
2016,05,21,17,18,19.80
2016,05,21,17,19,19.80
2016,05,21,17,20,19.80
2016,05,21,17,21,19.80
2016,05,21,17,22,19.80
2016,05,21,17,23,19.80
2016,05,21,17,24,19.90
2016,05,21,17,25,19.90
2016,05,21,17,26,19.90
2016,05,21,17,27,19.80
2016,05,21,17,28,19.70
2016,05,21,17,29,19.70
2016,05,21,17,30,19.60
2016,05,21,17,31,19.60
2016,05,21,17,32,19.50
2016,05,21,17,33,19.40
2016,05,21,17,34,19.30